Home > Weather > Utsunomiya > Past weeks

Flag for Japan Past Weather in Utsunomiya, Japan — Yesterday and Last 2 Weeks

Now
71 °F

Mild.


Feels Like: 70 °F
Forecast: 56 / 72 °F
Wind: 5 mph from Southwest

Location: Mito

Current Time: May 27, 2016 at 1:44:24 AM

Latest Report: May 27, 2016 at 1:00 AM


Visibility: N/A

Pressure: 29.76 "Hg

Humidity: 84%

Dew Point: 66 °F

Location of UtsunomiyaLocation

Past Weather in Utsunomiya — Graph

°F

Utsunomiya Temperature Yesterday

Maximum temperature yesterday: 79 °F (at 3:00 PM)
Minimum temperature yesterday: 65 °F (at 6:00 AM)
Average temperature yesterday: 73 °F

High & Low Weather Summary for the Past Weeks

 TemperatureHumidityPressure
High83 °F (May 23, 11:00 AM)98% (May 12, 6:00 AM)30.29 "Hg (May 12, 6:00 AM)
Low51 °F (May 19, 5:00 AM)23% (May 22, 1:00 PM)29.68 "Hg (May 12, 12:00 AM)
Average65 °F71%30.03 "Hg
* Reported May 12 12:00 AM — May 27 12:00 AM, Utsunomiya, Weather by CustomWeather, © 2016

Note: Actual official high and low records may vary slightly from our data, if they occured in-between our weather recording intervals... More about our weather records

Advertising

Utsunomiya Weather History for the Previous 24 Hours

Scroll right to see more
 ConditionsComfort  
Time TempWeatherWind HumidityBarometerVisibility
12:00 AM
Fri, May 27
71 °FMild.5 mph82%29.78 "HgN/A
11:00 PM
Thu, May 26
71 °FMild.5 mph82%29.79 "HgN/A
10:00 PM72 °FMild.6 mph77%29.81 "HgN/A
9:00 PM73 °FOvercast.8 mph73%29.83 "Hg6 mi
8:00 PM75 °FMild.6 mph69%29.82 "HgN/A
7:00 PM76 °FMild.6 mph68%29.82 "HgN/A
6:00 PM76 °FMild.5 mph69%29.82 "HgN/A
5:00 PM77 °FWarm.6 mph68%29.82 "HgN/A
4:00 PM78 °FWarm.8 mph64%29.83 "HgN/A
3:00 PM79 °FOvercast.9 mph59%29.83 "Hg12 mi
2:00 PM79 °FWarm.9 mph60%29.84 "HgN/A
1:00 PM79 °FWarm.12 mph62%29.85 "HgN/A
12:00 PM77 °FWarm.6 mph68%29.88 "HgN/A
11:00 AM77 °FMild.8 mph67%29.90 "HgN/A
10:00 AM74 °FMild.7 mph74%29.91 "HgN/A
9:00 AM72 °FOvercast.8 mph78%29.92 "Hg9 mi
8:00 AM72 °FMild.6 mph76%29.93 "HgN/A
7:00 AM71 °FMild.7 mph81%29.93 "HgN/A
6:00 AM65 °FMild.2 mph91%29.94 "HgN/A
5:00 AM66 °FMild.1 mph89%29.93 "HgN/A
4:00 AM67 °FMild.2 mph84%29.91 "HgN/A
3:00 AM67 °FPassing clouds.3 mph86%29.92 "Hg6 mi
2:00 AM67 °FMild.3 mph86%29.91 "HgN/A
1:00 AM67 °FMild.3 mph84%29.91 "HgN/A
Weather by CustomWeather, © 2016

See weather overviewHow to use our weather pages